owner,sensor,date,latitude,longitude,air_temperature,qcFlag 
COMPS,ioos:station:USF.COMPS:TAR:1,2009-02-01T00:00:00Z,28.1560,-82.7580,10.53,1111122 
COMPS,ioos:station:USF.COMPS:TAR:1,2009-02-01T00:06:00Z,28.1560,-82.7580,10.33,1111122 
COMPS,ioos:station:USF.COMPS:TAR:1,2009-02-01T00:12:00Z,28.1560,-82.7580,10.19,1111122 
COMPS,ioos:station:USF.COMPS:TAR:1,2009-02-01T00:18:00Z,28.1560,-82.7580,10.35,1111122 
COMPS,ioos:station:USF.COMPS:TAR:1,2009-02-01T00:24:00Z,28.1560,-82.7580,10.97,1111122 
COMPS,ioos:station:USF.COMPS:TAR:1,2009-02-01T00:30:00Z,28.1560,-82.7580,10.84,1111122 
COMPS,ioos:station:USF.COMPS:TAR:1,2009-02-01T00:36:00Z,28.1560,-82.7580,11.04,1111122 
COMPS,ioos:station:USF.COMPS:TAR:1,2009-02-01T00:42:00Z,28.1560,-82.7580,11.23,1111122 
COMPS,ioos:station:USF.COMPS:TAR:1,2009-02-01T00:48:00Z,28.1560,-82.7580,10.98,1111122 
COMPS,ioos:station:USF.COMPS:TAR:1,2009-02-01T00:54:00Z,28.1560,-82.7580,10.72,1111122 
COMPS,ioos:station:USF.COMPS:TAR:1,2009-02-01T01:00:00Z,28.1560,-82.7580,10.45,1111122 
COMPS,ioos:station:USF.COMPS:TAR:1,2009-02-01T01:06:00Z,28.1560,-82.7580,10.23,1111122 
COMPS,ioos:station:USF.COMPS:TAR:1,2009-02-01T01:12:00Z,28.1560,-82.7580,10.08,1111122 
COMPS,ioos:station:USF.COMPS:TAR:1,2009-02-01T01:18:00Z,28.1560,-82.7580,9.96,1111122 
COMPS,ioos:station:USF.COMPS:TAR:1,2009-02-01T01:24:00Z,28.1560,-82.7580,9.87,1111122 
COMPS,ioos:station:USF.COMPS:TAR:1,2009-02-01T01:30:00Z,28.1560,-82.7580,9.65,1111122 
COMPS,ioos:station:USF.COMPS:TAR:1,2009-02-01T01:36:00Z,28.1560,-82.7580,9.54,1111122 
COMPS,ioos:station:USF.COMPS:TAR:1,2009-02-01T01:42:00Z,28.1560,-82.7580,9.52,1111122 
COMPS,ioos:station:USF.COMPS:TAR:1,2009-02-01T01:48:00Z,28.1560,-82.7580,9.4,1111122 
COMPS,ioos:station:USF.COMPS:TAR:1,2009-02-01T01:54:00Z,28.1560,-82.7580,9.55,1111122 
COMPS,ioos:station:USF.COMPS:TAR:1,2009-02-01T02:00:00Z,28.1560,-82.7580,9.81,1111122 
COMPS,ioos:station:USF.COMPS:TAR:1,2009-02-01T02:06:00Z,28.1560,-82.7580,10.04,1111122 
COMPS,ioos:station:USF.COMPS:TAR:1,2009-02-01T02:12:00Z,28.1560,-82.7580,10.35,1111122 
COMPS,ioos:station:USF.COMPS:TAR:1,2009-02-01T02:18:00Z,28.1560,-82.7580,10.09,1111122 
COMPS,ioos:station:USF.COMPS:TAR:1,2009-02-01T02:24:00Z,28.1560,-82.7580,9.91,1111122 
COMPS,ioos:station:USF.COMPS:TAR:1,2009-02-01T02:30:00Z,28.1560,-82.7580,9.82,1111122 
COMPS,ioos:station:USF.COMPS:TAR:1,2009-02-01T02:36:00Z,28.1560,-82.7580,9.96,1111122 
COMPS,ioos:station:USF.COMPS:TAR:1,2009-02-01T02:42:00Z,28.1560,-82.7580,9.67,1111122 
COMPS,ioos:station:USF.COMPS:TAR:1,2009-02-01T02:48:00Z,28.1560,-82.7580,9.57,1111122 
COMPS,ioos:station:USF.COMPS:TAR:1,2009-02-01T02:54:00Z,28.1560,-82.7580,9.66,1111122 
COMPS,ioos:station:USF.COMPS:TAR:1,2009-02-01T03:00:00Z,28.1560,-82.7580,9.62,1111122 
COMPS,ioos:station:USF.COMPS:TAR:1,2009-02-01T03:06:00Z,28.1560,-82.7580,9.98,1111122 
COMPS,ioos:station:USF.COMPS:TAR:1,2009-02-01T03:12:00Z,28.1560,-82.7580,9.59,1111122 
COMPS,ioos:station:USF.COMPS:TAR:1,2009-02-01T03:18:00Z,28.1560,-82.7580,9.46,1111122 
COMPS,ioos:station:USF.COMPS:TAR:1,2009-02-01T03:24:00Z,28.1560,-82.7580,9.4,1111122 
COMPS,ioos:station:USF.COMPS:TAR:1,2009-02-01T03:30:00Z,28.1560,-82.7580,9.3,1111122 
COMPS,ioos:station:USF.COMPS:TAR:1,2009-02-01T03:36:00Z,28.1560,-82.7580,9.02,1111122 
COMPS,ioos:station:USF.COMPS:TAR:1,2009-02-01T03:42:00Z,28.1560,-82.7580,8.9,1111122 
COMPS,ioos:station:USF.COMPS:TAR:1,2009-02-01T03:48:00Z,28.1560,-82.7580,9.01,1111122 
COMPS,ioos:station:USF.COMPS:TAR:1,2009-02-01T03:54:00Z,28.1560,-82.7580,8.77,1111122 
COMPS,ioos:station:USF.COMPS:TAR:1,2009-02-01T04:00:00Z,28.1560,-82.7580,8.45,1111122 
COMPS,ioos:station:USF.COMPS:TAR:1,2009-02-01T04:06:00Z,28.1560,-82.7580,8.31,1111122 
COMPS,ioos:station:USF.COMPS:TAR:1,2009-02-01T04:12:00Z,28.1560,-82.7580,8.21,1111122 
COMPS,ioos:station:USF.COMPS:TAR:1,2009-02-01T04:18:00Z,28.1560,-82.7580,8.56,1111122 
COMPS,ioos:station:USF.COMPS:TAR:1,2009-02-01T04:24:00Z,28.1560,-82.7580,8.79,1111122 
COMPS,ioos:station:USF.COMPS:TAR:1,2009-02-01T04:30:00Z,28.1560,-82.7580,8.6,1111122 
COMPS,ioos:station:USF.COMPS:TAR:1,2009-02-01T04:36:00Z,28.1560,-82.7580,8.25,1111122 
COMPS,ioos:station:USF.COMPS:TAR:1,2009-02-01T04:42:00Z,28.1560,-82.7580,8.1,1111122 
COMPS,ioos:station:USF.COMPS:TAR:1,2009-02-01T04:48:00Z,28.1560,-82.7580,7.94,1111122 
COMPS,ioos:station:USF.COMPS:TAR:1,2009-02-01T04:54:00Z,28.1560,-82.7580,7.77,1111122 
COMPS,ioos:station:USF.COMPS:TAR:1,2009-02-01T05:00:00Z,28.1560,-82.7580,8.1,1111122 
COMPS,ioos:station:USF.COMPS:TAR:1,2009-02-01T05:06:00Z,28.1560,-82.7580,8.36,1111122 
COMPS,ioos:station:USF.COMPS:TAR:1,2009-02-01T05:12:00Z,28.1560,-82.7580,8.17,1111122 
COMPS,ioos:station:USF.COMPS:TAR:1,2009-02-01T05:18:00Z,28.1560,-82.7580,8.39,1111122 
COMPS,ioos:station:USF.COMPS:TAR:1,2009-02-01T05:24:00Z,28.1560,-82.7580,7.82,1111122 
COMPS,ioos:station:USF.COMPS:TAR:1,2009-02-01T05:30:00Z,28.1560,-82.7580,7.53,1111122 
COMPS,ioos:station:USF.COMPS:TAR:1,2009-02-01T05:36:00Z,28.1560,-82.7580,7.77,1111122 
COMPS,ioos:station:USF.COMPS:TAR:1,2009-02-01T05:42:00Z,28.1560,-82.7580,7.78,1111122 
COMPS,ioos:station:USF.COMPS:TAR:1,2009-02-01T05:48:00Z,28.1560,-82.7580,7.54,1111122 
COMPS,ioos:station:USF.COMPS:TAR:1,2009-02-01T05:54:00Z,28.1560,-82.7580,7.4,1111122 
COMPS,ioos:station:USF.COMPS:TAR:1,2009-02-01T06:00:00Z,28.1560,-82.7580,7.39,1111122 
COMPS,ioos:station:USF.COMPS:TAR:1,2009-02-01T06:06:00Z,28.1560,-82.7580,7.54,1111122 
COMPS,ioos:station:USF.COMPS:TAR:1,2009-02-01T06:12:00Z,28.1560,-82.7580,7.78,1111122 
COMPS,ioos:station:USF.COMPS:TAR:1,2009-02-01T06:18:00Z,28.1560,-82.7580,7.4,1111122 
COMPS,ioos:station:USF.COMPS:TAR:1,2009-02-01T06:24:00Z,28.1560,-82.7580,7.34,1111122 
COMPS,ioos:station:USF.COMPS:TAR:1,2009-02-01T06:30:00Z,28.1560,-82.7580,7.24,1111122 
COMPS,ioos:station:USF.COMPS:TAR:1,2009-02-01T06:36:00Z,28.1560,-82.7580,7.98,1111122 
COMPS,ioos:station:USF.COMPS:TAR:1,2009-02-01T06:42:00Z,28.1560,-82.7580,7.68,1111122 
COMPS,ioos:station:USF.COMPS:TAR:1,2009-02-01T06:48:00Z,28.1560,-82.7580,7.58,1111122 
COMPS,ioos:station:USF.COMPS:TAR:1,2009-02-01T06:54:00Z,28.1560,-82.7580,8.27,1111122 
COMPS,ioos:station:USF.COMPS:TAR:1,2009-02-01T07:00:00Z,28.1560,-82.7580,8.54,1111122 
COMPS,ioos:station:USF.COMPS:TAR:1,2009-02-01T07:06:00Z,28.1560,-82.7580,8.29,1111122 
COMPS,ioos:station:USF.COMPS:TAR:1,2009-02-01T07:12:00Z,28.1560,-82.7580,8.03,1111122 
COMPS,ioos:station:USF.COMPS:TAR:1,2009-02-01T07:18:00Z,28.1560,-82.7580,8.25,1111122 
COMPS,ioos:station:USF.COMPS:TAR:1,2009-02-01T07:24:00Z,28.1560,-82.7580,8.82,1111122 
COMPS,ioos:station:USF.COMPS:TAR:1,2009-02-01T07:30:00Z,28.1560,-82.7580,8.44,1111122 
COMPS,ioos:station:USF.COMPS:TAR:1,2009-02-01T07:36:00Z,28.1560,-82.7580,8.2,1111122 
COMPS,ioos:station:USF.COMPS:TAR:1,2009-02-01T07:42:00Z,28.1560,-82.7580,7.94,1111122 
COMPS,ioos:station:USF.COMPS:TAR:1,2009-02-01T07:48:00Z,28.1560,-82.7580,7.79,1111122 
COMPS,ioos:station:USF.COMPS:TAR:1,2009-02-01T07:54:00Z,28.1560,-82.7580,7.47,1111122 
COMPS,ioos:station:USF.COMPS:TAR:1,2009-02-01T08:00:00Z,28.1560,-82.7580,7.12,1111122 
COMPS,ioos:station:USF.COMPS:TAR:1,2009-02-01T08:06:00Z,28.1560,-82.7580,6.85,1111122 
COMPS,ioos:station:USF.COMPS:TAR:1,2009-02-01T08:12:00Z,28.1560,-82.7580,6.75,1111122 
COMPS,ioos:station:USF.COMPS:TAR:1,2009-02-01T08:18:00Z,28.1560,-82.7580,6.83,1111122 
COMPS,ioos:station:USF.COMPS:TAR:1,2009-02-01T08:24:00Z,28.1560,-82.7580,7.3,1111122 
COMPS,ioos:station:USF.COMPS:TAR:1,2009-02-01T08:30:00Z,28.1560,-82.7580,7.3,1111122 
COMPS,ioos:station:USF.COMPS:TAR:1,2009-02-01T08:36:00Z,28.1560,-82.7580,6.92,1111122 
COMPS,ioos:station:USF.COMPS:TAR:1,2009-02-01T08:42:00Z,28.1560,-82.7580,6.66,1111122 
COMPS,ioos:station:USF.COMPS:TAR:1,2009-02-01T08:48:00Z,28.1560,-82.7580,6.55,1111122 
COMPS,ioos:station:USF.COMPS:TAR:1,2009-02-01T08:54:00Z,28.1560,-82.7580,6.43,1111122 
COMPS,ioos:station:USF.COMPS:TAR:1,2009-02-01T09:00:00Z,28.1560,-82.7580,6.31,1111122 
COMPS,ioos:station:USF.COMPS:TAR:1,2009-02-01T09:06:00Z,28.1560,-82.7580,6.11,1111122 
COMPS,ioos:station:USF.COMPS:TAR:1,2009-02-01T09:12:00Z,28.1560,-82.7580,6.0,1111122 
COMPS,ioos:station:USF.COMPS:TAR:1,2009-02-01T09:18:00Z,28.1560,-82.7580,5.98,1111122 
COMPS,ioos:station:USF.COMPS:TAR:1,2009-02-01T09:24:00Z,28.1560,-82.7580,5.92,1111122 
COMPS,ioos:station:USF.COMPS:TAR:1,2009-02-01T09:30:00Z,28.1560,-82.7580,5.85,1111122 
COMPS,ioos:station:USF.COMPS:TAR:1,2009-02-01T09:36:00Z,28.1560,-82.7580,6.5,1111122 
COMPS,ioos:station:USF.COMPS:TAR:1,2009-02-01T09:42:00Z,28.1560,-82.7580,6.24,1111122 
COMPS,ioos:station:USF.COMPS:TAR:1,2009-02-01T09:48:00Z,28.1560,-82.7580,6.05,1111122 
COMPS,ioos:station:USF.COMPS:TAR:1,2009-02-01T09:54:00Z,28.1560,-82.7580,5.91,1111122 
COMPS,ioos:station:USF.COMPS:TAR:1,2009-02-01T10:00:00Z,28.1560,-82.7580,5.99,1111122 
COMPS,ioos:station:USF.COMPS:TAR:1,2009-02-01T10:06:00Z,28.1560,-82.7580,5.99,1111122 
COMPS,ioos:station:USF.COMPS:TAR:1,2009-02-01T10:12:00Z,28.1560,-82.7580,5.79,1111122 
COMPS,ioos:station:USF.COMPS:TAR:1,2009-02-01T10:18:00Z,28.1560,-82.7580,5.75,1111122 
COMPS,ioos:station:USF.COMPS:TAR:1,2009-02-01T10:24:00Z,28.1560,-82.7580,5.6,1111122 
COMPS,ioos:station:USF.COMPS:TAR:1,2009-02-01T10:30:00Z,28.1560,-82.7580,5.33,1111122 
COMPS,ioos:station:USF.COMPS:TAR:1,2009-02-01T10:36:00Z,28.1560,-82.7580,5.26,1111122 
COMPS,ioos:station:USF.COMPS:TAR:1,2009-02-01T10:42:00Z,28.1560,-82.7580,5.17,1111122 
COMPS,ioos:station:USF.COMPS:TAR:1,2009-02-01T10:48:00Z,28.1560,-82.7580,5.03,1111122 
COMPS,ioos:station:USF.COMPS:TAR:1,2009-02-01T10:54:00Z,28.1560,-82.7580,5.02,1111122 
COMPS,ioos:station:USF.COMPS:TAR:1,2009-02-01T11:00:00Z,28.1560,-82.7580,5.24,1111122 
COMPS,ioos:station:USF.COMPS:TAR:1,2009-02-01T11:06:00Z,28.1560,-82.7580,5.69,1111122 
COMPS,ioos:station:USF.COMPS:TAR:1,2009-02-01T11:12:00Z,28.1560,-82.7580,5.76,1111122 
COMPS,ioos:station:USF.COMPS:TAR:1,2009-02-01T11:18:00Z,28.1560,-82.7580,5.61,1111122 
COMPS,ioos:station:USF.COMPS:TAR:1,2009-02-01T11:24:00Z,28.1560,-82.7580,5.49,1111122 
COMPS,ioos:station:USF.COMPS:TAR:1,2009-02-01T11:30:00Z,28.1560,-82.7580,5.63,1111122 
COMPS,ioos:station:USF.COMPS:TAR:1,2009-02-01T11:36:00Z,28.1560,-82.7580,5.48,1111122 
COMPS,ioos:station:USF.COMPS:TAR:1,2009-02-01T11:42:00Z,28.1560,-82.7580,5.78,1111122 
COMPS,ioos:station:USF.COMPS:TAR:1,2009-02-01T11:48:00Z,28.1560,-82.7580,5.66,1111122 
COMPS,ioos:station:USF.COMPS:TAR:1,2009-02-01T11:54:00Z,28.1560,-82.7580,5.68,1111122 
COMPS,ioos:station:USF.COMPS:TAR:1,2009-02-01T12:00:00Z,28.1560,-82.7580,5.52,1111122 
COMPS,ioos:station:USF.COMPS:TAR:1,2009-02-01T12:06:00Z,28.1560,-82.7580,5.66,1111122 
COMPS,ioos:station:USF.COMPS:TAR:1,2009-02-01T12:12:00Z,28.1560,-82.7580,5.93,1111122 
COMPS,ioos:station:USF.COMPS:TAR:1,2009-02-01T12:18:00Z,28.1560,-82.7580,6.01,1111122 
COMPS,ioos:station:USF.COMPS:TAR:1,2009-02-01T12:24:00Z,28.1560,-82.7580,5.94,1111122 
COMPS,ioos:station:USF.COMPS:TAR:1,2009-02-01T12:30:00Z,28.1560,-82.7580,6.84,1111122 
COMPS,ioos:station:USF.COMPS:TAR:1,2009-02-01T12:36:00Z,28.1560,-82.7580,6.56,1111122 
COMPS,ioos:station:USF.COMPS:TAR:1,2009-02-01T12:42:00Z,28.1560,-82.7580,6.85,1111122 
COMPS,ioos:station:USF.COMPS:TAR:1,2009-02-01T12:48:00Z,28.1560,-82.7580,6.42,1111122 
COMPS,ioos:station:USF.COMPS:TAR:1,2009-02-01T12:54:00Z,28.1560,-82.7580,6.75,1111122 
COMPS,ioos:station:USF.COMPS:TAR:1,2009-02-01T13:00:00Z,28.1560,-82.7580,6.61,1111122 
COMPS,ioos:station:USF.COMPS:TAR:1,2009-02-01T13:06:00Z,28.1560,-82.7580,6.62,1111122 
COMPS,ioos:station:USF.COMPS:TAR:1,2009-02-01T13:12:00Z,28.1560,-82.7580,6.76,1111122 
COMPS,ioos:station:USF.COMPS:TAR:1,2009-02-01T13:18:00Z,28.1560,-82.7580,7.49,1111122 
COMPS,ioos:station:USF.COMPS:TAR:1,2009-02-01T13:24:00Z,28.1560,-82.7580,8.4,1111122 
COMPS,ioos:station:USF.COMPS:TAR:1,2009-02-01T13:30:00Z,28.1560,-82.7580,9.3,1111122 
COMPS,ioos:station:USF.COMPS:TAR:1,2009-02-01T13:36:00Z,28.1560,-82.7580,9.5,1111122 
COMPS,ioos:station:USF.COMPS:TAR:1,2009-02-01T13:42:00Z,28.1560,-82.7580,10.66,1111122 
COMPS,ioos:station:USF.COMPS:TAR:1,2009-02-01T13:48:00Z,28.1560,-82.7580,12.24,1111122 
COMPS,ioos:station:USF.COMPS:TAR:1,2009-02-01T13:54:00Z,28.1560,-82.7580,13.16,1111122 
COMPS,ioos:station:USF.COMPS:TAR:1,2009-02-01T14:00:00Z,28.1560,-82.7580,14.06,1111122 
COMPS,ioos:station:USF.COMPS:TAR:1,2009-02-01T14:06:00Z,28.1560,-82.7580,13.92,1111122 
COMPS,ioos:station:USF.COMPS:TAR:1,2009-02-01T14:12:00Z,28.1560,-82.7580,13.23,1111122 
COMPS,ioos:station:USF.COMPS:TAR:1,2009-02-01T14:18:00Z,28.1560,-82.7580,12.52,1111122 
COMPS,ioos:station:USF.COMPS:TAR:1,2009-02-01T14:24:00Z,28.1560,-82.7580,12.66,1111122 
COMPS,ioos:station:USF.COMPS:TAR:1,2009-02-01T14:30:00Z,28.1560,-82.7580,12.64,1111122 
COMPS,ioos:station:USF.COMPS:TAR:1,2009-02-01T14:36:00Z,28.1560,-82.7580,12.68,1111122 
COMPS,ioos:station:USF.COMPS:TAR:1,2009-02-01T14:42:00Z,28.1560,-82.7580,13.05,1111122 
COMPS,ioos:station:USF.COMPS:TAR:1,2009-02-01T14:48:00Z,28.1560,-82.7580,13.51,1111122 
COMPS,ioos:station:USF.COMPS:TAR:1,2009-02-01T14:54:00Z,28.1560,-82.7580,13.09,1111122 
COMPS,ioos:station:USF.COMPS:TAR:1,2009-02-01T15:00:00Z,28.1560,-82.7580,13.44,1111122 
COMPS,ioos:station:USF.COMPS:TAR:1,2009-02-01T15:06:00Z,28.1560,-82.7580,13.75,1111122 
COMPS,ioos:station:USF.COMPS:TAR:1,2009-02-01T15:12:00Z,28.1560,-82.7580,13.83,1111122 
COMPS,ioos:station:USF.COMPS:TAR:1,2009-02-01T15:18:00Z,28.1560,-82.7580,14.41,1111122 
COMPS,ioos:station:USF.COMPS:TAR:1,2009-02-01T15:24:00Z,28.1560,-82.7580,14.78,1111122 
COMPS,ioos:station:USF.COMPS:TAR:1,2009-02-01T15:30:00Z,28.1560,-82.7580,15.81,1111122 
COMPS,ioos:station:USF.COMPS:TAR:1,2009-02-01T15:36:00Z,28.1560,-82.7580,16.58,1111122 
COMPS,ioos:station:USF.COMPS:TAR:1,2009-02-01T15:42:00Z,28.1560,-82.7580,16.23,1111122 
COMPS,ioos:station:USF.COMPS:TAR:1,2009-02-01T15:48:00Z,28.1560,-82.7580,16.09,1111122 
COMPS,ioos:station:USF.COMPS:TAR:1,2009-02-01T15:54:00Z,28.1560,-82.7580,15.82,1111122 
COMPS,ioos:station:USF.COMPS:TAR:1,2009-02-01T16:00:00Z,28.1560,-82.7580,15.7,1111122 
COMPS,ioos:station:USF.COMPS:TAR:1,2009-02-01T16:06:00Z,28.1560,-82.7580,15.81,1111122 
COMPS,ioos:station:USF.COMPS:TAR:1,2009-02-01T16:12:00Z,28.1560,-82.7580,15.88,1111122 
COMPS,ioos:station:USF.COMPS:TAR:1,2009-02-01T16:18:00Z,28.1560,-82.7580,16.16,1111122 
COMPS,ioos:station:USF.COMPS:TAR:1,2009-02-01T16:24:00Z,28.1560,-82.7580,16.54,1111122 
COMPS,ioos:station:USF.COMPS:TAR:1,2009-02-01T16:30:00Z,28.1560,-82.7580,17.0,1111122 
COMPS,ioos:station:USF.COMPS:TAR:1,2009-02-01T16:36:00Z,28.1560,-82.7580,17.24,1111122 
COMPS,ioos:station:USF.COMPS:TAR:1,2009-02-01T16:42:00Z,28.1560,-82.7580,17.42,1111122 
COMPS,ioos:station:USF.COMPS:TAR:1,2009-02-01T16:48:00Z,28.1560,-82.7580,17.03,1111122 
COMPS,ioos:station:USF.COMPS:TAR:1,2009-02-01T16:54:00Z,28.1560,-82.7580,17.15,1111122 
COMPS,ioos:station:USF.COMPS:TAR:1,2009-02-01T17:00:00Z,28.1560,-82.7580,17.47,1111122 
COMPS,ioos:station:USF.COMPS:TAR:1,2009-02-01T17:06:00Z,28.1560,-82.7580,17.57,1111122 
COMPS,ioos:station:USF.COMPS:TAR:1,2009-02-01T17:12:00Z,28.1560,-82.7580,18.1,1111122 
COMPS,ioos:station:USF.COMPS:TAR:1,2009-02-01T17:18:00Z,28.1560,-82.7580,18.12,1111122 
COMPS,ioos:station:USF.COMPS:TAR:1,2009-02-01T17:24:00Z,28.1560,-82.7580,17.78,1111122 
COMPS,ioos:station:USF.COMPS:TAR:1,2009-02-01T17:30:00Z,28.1560,-82.7580,19.34,1111122 
COMPS,ioos:station:USF.COMPS:TAR:1,2009-02-01T17:36:00Z,28.1560,-82.7580,18.82,1111122 
COMPS,ioos:station:USF.COMPS:TAR:1,2009-02-01T17:42:00Z,28.1560,-82.7580,19.59,1111122 
COMPS,ioos:station:USF.COMPS:TAR:1,2009-02-01T17:48:00Z,28.1560,-82.7580,19.89,1111122 
COMPS,ioos:station:USF.COMPS:TAR:1,2009-02-01T17:54:00Z,28.1560,-82.7580,19.79,1111122 
COMPS,ioos:station:USF.COMPS:TAR:1,2009-02-01T18:00:00Z,28.1560,-82.7580,19.18,1111122 
COMPS,ioos:station:USF.COMPS:TAR:1,2009-02-01T18:06:00Z,28.1560,-82.7580,19.35,1111122 
COMPS,ioos:station:USF.COMPS:TAR:1,2009-02-01T18:12:00Z,28.1560,-82.7580,19.25,1111122 
COMPS,ioos:station:USF.COMPS:TAR:1,2009-02-01T18:18:00Z,28.1560,-82.7580,18.98,1111122 
COMPS,ioos:station:USF.COMPS:TAR:1,2009-02-01T18:24:00Z,28.1560,-82.7580,19.56,1111122 
COMPS,ioos:station:USF.COMPS:TAR:1,2009-02-01T18:30:00Z,28.1560,-82.7580,20.15,1111122 
COMPS,ioos:station:USF.COMPS:TAR:1,2009-02-01T18:36:00Z,28.1560,-82.7580,19.37,1111122 
COMPS,ioos:station:USF.COMPS:TAR:1,2009-02-01T18:42:00Z,28.1560,-82.7580,19.32,1111122 
COMPS,ioos:station:USF.COMPS:TAR:1,2009-02-01T18:48:00Z,28.1560,-82.7580,19.17,1111122 
COMPS,ioos:station:USF.COMPS:TAR:1,2009-02-01T18:54:00Z,28.1560,-82.7580,19.87,1111122 
COMPS,ioos:station:USF.COMPS:TAR:1,2009-02-01T19:00:00Z,28.1560,-82.7580,20.5,1111122 
COMPS,ioos:station:USF.COMPS:TAR:1,2009-02-01T19:06:00Z,28.1560,-82.7580,21.22,1111122 
COMPS,ioos:station:USF.COMPS:TAR:1,2009-02-01T19:12:00Z,28.1560,-82.7580,21.7,1111122 
COMPS,ioos:station:USF.COMPS:TAR:1,2009-02-01T19:18:00Z,28.1560,-82.7580,21.76,1111122 
COMPS,ioos:station:USF.COMPS:TAR:1,2009-02-01T19:24:00Z,28.1560,-82.7580,21.42,1111122 
COMPS,ioos:station:USF.COMPS:TAR:1,2009-02-01T19:30:00Z,28.1560,-82.7580,20.7,1111122 
COMPS,ioos:station:USF.COMPS:TAR:1,2009-02-01T19:36:00Z,28.1560,-82.7580,19.84,1111122 
COMPS,ioos:station:USF.COMPS:TAR:1,2009-02-01T19:42:00Z,28.1560,-82.7580,19.46,1111122 
COMPS,ioos:station:USF.COMPS:TAR:1,2009-02-01T19:48:00Z,28.1560,-82.7580,19.44,1111122 
COMPS,ioos:station:USF.COMPS:TAR:1,2009-02-01T19:54:00Z,28.1560,-82.7580,19.67,1111122 
COMPS,ioos:station:USF.COMPS:TAR:1,2009-02-01T20:00:00Z,28.1560,-82.7580,20.26,1111122 
COMPS,ioos:station:USF.COMPS:TAR:1,2009-02-01T20:06:00Z,28.1560,-82.7580,20.87,1111122 
COMPS,ioos:station:USF.COMPS:TAR:1,2009-02-01T20:12:00Z,28.1560,-82.7580,20.35,1111122 
COMPS,ioos:station:USF.COMPS:TAR:1,2009-02-01T20:18:00Z,28.1560,-82.7580,20.05,1111122 
COMPS,ioos:station:USF.COMPS:TAR:1,2009-02-01T20:24:00Z,28.1560,-82.7580,20.3,1111122 
COMPS,ioos:station:USF.COMPS:TAR:1,2009-02-01T20:30:00Z,28.1560,-82.7580,19.36,1111122 
COMPS,ioos:station:USF.COMPS:TAR:1,2009-02-01T20:36:00Z,28.1560,-82.7580,19.25,1111122 
COMPS,ioos:station:USF.COMPS:TAR:1,2009-02-01T20:42:00Z,28.1560,-82.7580,19.67,1111122 
COMPS,ioos:station:USF.COMPS:TAR:1,2009-02-01T20:48:00Z,28.1560,-82.7580,20.27,1111122 
COMPS,ioos:station:USF.COMPS:TAR:1,2009-02-01T20:54:00Z,28.1560,-82.7580,20.16,1111122 
COMPS,ioos:station:USF.COMPS:TAR:1,2009-02-01T21:00:00Z,28.1560,-82.7580,19.63,1111122 
COMPS,ioos:station:USF.COMPS:TAR:1,2009-02-01T21:06:00Z,28.1560,-82.7580,19.53,1111122 
COMPS,ioos:station:USF.COMPS:TAR:1,2009-02-01T21:12:00Z,28.1560,-82.7580,19.76,1111122 
COMPS,ioos:station:USF.COMPS:TAR:1,2009-02-01T21:18:00Z,28.1560,-82.7580,19.73,1111122 
COMPS,ioos:station:USF.COMPS:TAR:1,2009-02-01T21:24:00Z,28.1560,-82.7580,19.93,1111122 
COMPS,ioos:station:USF.COMPS:TAR:1,2009-02-01T21:30:00Z,28.1560,-82.7580,19.59,1111122 
COMPS,ioos:station:USF.COMPS:TAR:1,2009-02-01T21:36:00Z,28.1560,-82.7580,19.17,1111122 
COMPS,ioos:station:USF.COMPS:TAR:1,2009-02-01T21:42:00Z,28.1560,-82.7580,19.01,1111122 
COMPS,ioos:station:USF.COMPS:TAR:1,2009-02-01T21:48:00Z,28.1560,-82.7580,19.06,1111122 
COMPS,ioos:station:USF.COMPS:TAR:1,2009-02-01T21:54:00Z,28.1560,-82.7580,19.32,1111122 
COMPS,ioos:station:USF.COMPS:TAR:1,2009-02-01T22:00:00Z,28.1560,-82.7580,19.24,1111122 
COMPS,ioos:station:USF.COMPS:TAR:1,2009-02-01T22:06:00Z,28.1560,-82.7580,19.18,1111122 
COMPS,ioos:station:USF.COMPS:TAR:1,2009-02-01T22:12:00Z,28.1560,-82.7580,19.0,1111122 
COMPS,ioos:station:USF.COMPS:TAR:1,2009-02-01T22:18:00Z,28.1560,-82.7580,19.11,1111122 
COMPS,ioos:station:USF.COMPS:TAR:1,2009-02-01T22:24:00Z,28.1560,-82.7580,18.93,1111122 
COMPS,ioos:station:USF.COMPS:TAR:1,2009-02-01T22:30:00Z,28.1560,-82.7580,18.97,1111122 
COMPS,ioos:station:USF.COMPS:TAR:1,2009-02-01T22:36:00Z,28.1560,-82.7580,19.02,1111122 
COMPS,ioos:station:USF.COMPS:TAR:1,2009-02-01T22:42:00Z,28.1560,-82.7580,18.77,1111122 
COMPS,ioos:station:USF.COMPS:TAR:1,2009-02-01T22:48:00Z,28.1560,-82.7580,18.13,1111122 
COMPS,ioos:station:USF.COMPS:TAR:1,2009-02-01T22:54:00Z,28.1560,-82.7580,17.8,1111122 
COMPS,ioos:station:USF.COMPS:TAR:1,2009-02-01T23:00:00Z,28.1560,-82.7580,17.38,1111122 
COMPS,ioos:station:USF.COMPS:TAR:1,2009-02-01T23:06:00Z,28.1560,-82.7580,16.9,1111122 
COMPS,ioos:station:USF.COMPS:TAR:1,2009-02-01T23:12:00Z,28.1560,-82.7580,16.57,1111122 
COMPS,ioos:station:USF.COMPS:TAR:1,2009-02-01T23:18:00Z,28.1560,-82.7580,16.32,1111122 
COMPS,ioos:station:USF.COMPS:TAR:1,2009-02-01T23:24:00Z,28.1560,-82.7580,16.18,1111122 
COMPS,ioos:station:USF.COMPS:TAR:1,2009-02-01T23:30:00Z,28.1560,-82.7580,16.12,1111122 
COMPS,ioos:station:USF.COMPS:TAR:1,2009-02-01T23:36:00Z,28.1560,-82.7580,16.02,1111122 
COMPS,ioos:station:USF.COMPS:TAR:1,2009-02-01T23:42:00Z,28.1560,-82.7580,16.0,1111122 
COMPS,ioos:station:USF.COMPS:TAR:1,2009-02-01T23:48:00Z,28.1560,-82.7580,16.02,1111122 
COMPS,ioos:station:USF.COMPS:TAR:1,2009-02-01T23:54:00Z,28.1560,-82.7580,15.93,1111122 
COMPS,ioos:station:USF.COMPS:TAR:1,2009-02-02T00:00:00Z,28.1560,-82.7580,15.82,1111122 
COMPS,ioos:station:USF.COMPS:TAR:1,2009-02-02T00:06:00Z,28.1560,-82.7580,15.75,1111122 
COMPS,ioos:station:USF.COMPS:TAR:1,2009-02-02T00:12:00Z,28.1560,-82.7580,15.76,1111122 
COMPS,ioos:station:USF.COMPS:TAR:1,2009-02-02T00:18:00Z,28.1560,-82.7580,15.76,1111122 
COMPS,ioos:station:USF.COMPS:TAR:1,2009-02-02T00:24:00Z,28.1560,-82.7580,15.79,1111122 
COMPS,ioos:station:USF.COMPS:TAR:1,2009-02-02T00:30:00Z,28.1560,-82.7580,15.86,1111122 
COMPS,ioos:station:USF.COMPS:TAR:1,2009-02-02T00:36:00Z,28.1560,-82.7580,16.23,1111122 
COMPS,ioos:station:USF.COMPS:TAR:1,2009-02-02T00:42:00Z,28.1560,-82.7580,16.54,1111122 
COMPS,ioos:station:USF.COMPS:TAR:1,2009-02-02T00:48:00Z,28.1560,-82.7580,16.55,1111122 
COMPS,ioos:station:USF.COMPS:TAR:1,2009-02-02T00:54:00Z,28.1560,-82.7580,16.44,1111122 
COMPS,ioos:station:USF.COMPS:TAR:1,2009-02-02T01:00:00Z,28.1560,-82.7580,15.9,1111122 
COMPS,ioos:station:USF.COMPS:TAR:1,2009-02-02T01:06:00Z,28.1560,-82.7580,15.68,1111122 
COMPS,ioos:station:USF.COMPS:TAR:1,2009-02-02T01:12:00Z,28.1560,-82.7580,15.5,1111122 
COMPS,ioos:station:USF.COMPS:TAR:1,2009-02-02T01:18:00Z,28.1560,-82.7580,15.37,1111122 
COMPS,ioos:station:USF.COMPS:TAR:1,2009-02-02T01:24:00Z,28.1560,-82.7580,15.28,1111122 
COMPS,ioos:station:USF.COMPS:TAR:1,2009-02-02T01:30:00Z,28.1560,-82.7580,15.03,1111122 
COMPS,ioos:station:USF.COMPS:TAR:1,2009-02-02T01:36:00Z,28.1560,-82.7580,14.95,1111122 
COMPS,ioos:station:USF.COMPS:TAR:1,2009-02-02T01:42:00Z,28.1560,-82.7580,15.05,1111122 
COMPS,ioos:station:USF.COMPS:TAR:1,2009-02-02T01:48:00Z,28.1560,-82.7580,15.07,1111122 
COMPS,ioos:station:USF.COMPS:TAR:1,2009-02-02T01:54:00Z,28.1560,-82.7580,15.08,1111122 
COMPS,ioos:station:USF.COMPS:TAR:1,2009-02-02T02:00:00Z,28.1560,-82.7580,15.08,1111122 
COMPS,ioos:station:USF.COMPS:TAR:1,2009-02-02T02:06:00Z,28.1560,-82.7580,15.08,1111122 
COMPS,ioos:station:USF.COMPS:TAR:1,2009-02-02T02:12:00Z,28.1560,-82.7580,15.08,1111122 
COMPS,ioos:station:USF.COMPS:TAR:1,2009-02-02T02:18:00Z,28.1560,-82.7580,15.14,1111122 
COMPS,ioos:station:USF.COMPS:TAR:1,2009-02-02T02:24:00Z,28.1560,-82.7580,15.24,1111122 
COMPS,ioos:station:USF.COMPS:TAR:1,2009-02-02T02:30:00Z,28.1560,-82.7580,15.22,1111122 
COMPS,ioos:station:USF.COMPS:TAR:1,2009-02-02T02:36:00Z,28.1560,-82.7580,15.26,1111122 
COMPS,ioos:station:USF.COMPS:TAR:1,2009-02-02T02:42:00Z,28.1560,-82.7580,15.33,1111122 
COMPS,ioos:station:USF.COMPS:TAR:1,2009-02-02T02:48:00Z,28.1560,-82.7580,15.38,1111122 
COMPS,ioos:station:USF.COMPS:TAR:1,2009-02-02T02:54:00Z,28.1560,-82.7580,15.54,1111122 
COMPS,ioos:station:USF.COMPS:TAR:1,2009-02-02T03:00:00Z,28.1560,-82.7580,15.57,1111122 
COMPS,ioos:station:USF.COMPS:TAR:1,2009-02-02T03:06:00Z,28.1560,-82.7580,15.51,1111122 
COMPS,ioos:station:USF.COMPS:TAR:1,2009-02-02T03:12:00Z,28.1560,-82.7580,15.55,1111122 